Showing default

NUSAT-44 MARIA MITCHELL, 59122

Orbit data source: Space-Track

NUSAT-44 MARIA MITCHELL, 59122 is a payload satellite owned by URUGUS S.A. (AR) in SSO that was launched on Mon, 04 Mar 2024 UTC via an FALCON 9 launch vehicle from the Air Force Western Test Range (AFWTR). Payloads include a variety of satellites, spacecraft, and rockets equipped with specific instruments for various scientific and technological missions. These include communications satellites like Starlink; space stations such as the ISS; scientific satellites like the Hubble; Earth observation satellites from companies like Planet Labs, Umbra, and HawkEye 360; GPS; miniature CubeSats for education and research; and military/defense satellites.

Loading next visibility...
NUSAT-44 MARIA MITCHELL details
Identifier
59122, 2024-043AA
Orbit
SSO
Last TLE update6 hours ago
Origin
Flag of ARURUGUS S.A. (AR / ARGN)
ManufacturerURUGUS S.A.
MissionOperational Commercial Imaging
Bus & MotorNEWSAT V, Unknown motor
Mass41.5 kg wet, 38.5 kg dry
Launch date (UTC)
2024-03-04 (9 months ago)
Launch vehicle
FALCON 9
Launch site
Air Force Western Test Range (AFWTR)
Object type
Payload
Rocket body
Debris
Shape & HBRBox, 0.813 m
Radar Cross Section0.542 m², Medium (>0.1 m² and < 1m²)

Expand to show TLE details & history

TLE from 6 hours ago
0 NUSAT-44 MARIA MITCHELL
1 59122U 24043AA  24326.12348154  .00020253  00000-0  78940-3 0  9990
2 59122  97.4943  89.3087 0012330 100.1471 260.1159 15.25919056 39688
Epoch: 2024-11-21T02:57Z
Definitive object data (Epoch: 2024-11-21T02:57:48.805Z)
Latitude0.00005°
Longitude-15.7544°
Altitude492.587 km
Speed7.618 km/s
True Right ascension05h 57m 14s
True Declination0° 00' 00"
Sunlit
Object was in full shadow at TLE epoch
Visualization TLE readout
Latitude-57.34216°
Longitude152.7084°
Altitude516.589 km
Speed7.6 km/s
Apparent Right ascension17h 31m 05s
Apparent Declination-48° 52' 29"
Sunlit
Object is in daylight
Visualization observer readout
Local Sidereal Time05:46:19
Azimuth164.428° S
Elevation-80.641°
Doppler factor1
Orbital elements
Apogee altitude493.451 km
Perigee altitude476.527 km
Semi-major axis6,863.126 km
Eccentricity0.001233
Inclination97.4943°
RAAN89.3087°
Arg. of periapsis100.1471°
True anomaly259.97674°
Mean anomaly260.1159°
Eccentric anomaly260.04632°
Mean motion3.81733 °/min
BSTAR0.0007894
Orbital period94.31 mins
Loading maneuver chart data...
Loading historical data...
Loading historical data...
Loading historical data...
Loading historical data...
Loading historical data...
Loading historical data...
Loading historical data...

NUSAT-44 MARIA MITCHELL Visibility forecast

Observer location: undefined°, undefined

Span
Click to sort rows by Start time (UTC) header in descending order
Start Az.
Max El. time (UTC)
Max El. Az.
Max El.
End time (UTC)
End Az.
4 mins2024-11-21 09:23:24.385Z226.206° WSW2024-11-21 09:25:24.385Z260.632° W15.492°2024-11-21 09:27:24.385Z298.712° NW
5 mins2024-11-21 20:51:24.385Z42.918° NE2024-11-21 20:53:24.385Z101.896° ESE30.595°2024-11-21 20:56:24.385Z165.497° S
|